Regional Weather Roundup
Issued by NWS

Home | Current Version | Previous Version | Text Only | Print | Product List | Glossary On
Versions: 1 2 3 4 5 6 7 8 9 10 11 12 13 14 15 16 17 18 19 20 21 22 23 24 25 26 27 28 29 30 31 32 33 34 35 36 37 38 39 40 41 42 43 44 45 46 47 48 49 50
000
ASUS43 KDTX 292110
RWRMI
MICHIGAN HOURLY REGIONAL WEATHER ROUNDUP
NATIONAL WEATHER SERVICE DETROIT/PONTIAC MI
500 PM EDT SUN MAY 29 2016

NOTE: "FAIR" INDICATES FEW OR NO CLOUDS BELOW 12,000 FEET WITH NO
SIGNIFICANT WEATHER AND/OR OBSTRUCTION TO VISIBILITY.

MIZ047>049-052>055-059>063-066>070-074>076-081>083-292200-
SOUTHEAST LOWER MICHIGAN

CITY           SKY/WX    TMP DP  RH WIND       PRES   REMARKS
ADRIAN         MOSUNNY   87  57  35 W16G25    29.94F
ALMA           MOSUNNY   80  56  43 MISG      29.93F
ANN ARBOR      MOSUNNY   83  62  49 SW13G21   29.92F
BAD AXE        CLOUDY    77  64  65 S13       29.91F
CARO           MOSUNNY   83  58  42 SW10G18   29.90F
DETROIT CITY   LGT RAIN  77  66  68 SW21G36   29.94F
DETROIT        PTSUNNY   82  64  54 S13       29.93F
FLINT          MOSUNNY   88  58  36 W15G25    29.90F
GROSSE ILE     HVY RAIN  73  64  73 SW7G17    29.93F
HILLSDALE      MOSUNNY   85  44  23 W10G24    29.97F
HOWELL         MOSUNNY   86  55  33 W17G26    29.93F

CITY           SKY/WX    TMP DP  RH WIND       PRES   REMARKS
JACKSON        SUNNY     85  54  34 W14G23    29.94F
LAMBERTVILLE   LGT RAIN  80  66  61 SW5       29.95S
LANSING        MOSUNNY   84  57  39 SW18      29.94F
LAPEER         FAIR      77  65  66 S7        29.92F
MASON          PTSUNNY   84  55  37 SW12G21   29.94F
MT. CLEMENS    TSTM      81  64  57 SW16G23   29.90F
PONTIAC        CLOUDY    77  63  61 S8        29.92F
PORT HOPE        N/A     67  61  81 CALM      29.90F
PORT HURON     MOSUNNY   82  64  54 S17       29.92F
TRI CITIES     MOSUNNY   84  57  39 W22G28    29.90F
MIDLAND        FAIR      82  54  38 W22G30    29.90F
TROY           PTSUNNY   83  64  51 S10G17    29.95S
SAGINAW HB     MOSUNNY   84  54  34 W16G26    29.89F
$$
MIZ043>046-050>051-056>058-064>065-071>073-077>080-292200-
SOUTHWEST LOWER MICHIGAN

CITY           SKY/WX    TMP DP  RH WIND       PRES   REMARKS
BATTLE CREEK   PTSUNNY   82  59  45 W20       29.97F
BENTON HARBOR  SUNNY     74  60  61 W12       30.00S
BIG RAPIDS     MOSUNNY   74  59  59 SW22G31   29.93F
COLDWATER      MOSUNNY   83  51  33 SW16G26   29.96F
FREMONT        FAIR      76  57  53 SW17G24   29.95F
HOLLAND        SUNNY     76  60  57 W16       29.99F
GRAND RAPIDS   MOSUNNY   80  58  46 W21G30    29.96F
IONIA          FAIR      81  54  38 W24G33    29.93F
KALAMAZOO      SUNNY     82  59  45 W15G23    29.98S
LUDINGTON      CLOUDY    63  56  79 SW8       29.95S
MARSHALL       MOSUNNY   84  55  36 W14G26    29.95F
MOUNT PLEASANT MOSUNNY   79  58  48 SW17G26   29.92F
MUSKEGON       PTSUNNY   73  57  57 SW15      29.97F
SOUTH HAVEN    SUNNY     73  60  64 W9        29.99F
$$
MIZ016>042-292200-
NORTHERN LOWER MICHIGAN

CITY           SKY/WX    TMP DP  RH WIND       PRES   REMARKS
ALPENA         MOSUNNY   84  52  33 SW16G29   29.84F
BEAVER ISLAND  MOSUNNY   64  58  78 SW15G24   29.86S
BELLAIRE       SUNNY     77  58  51 SW13G18   29.87S
CADILLAC       PTSUNNY   72  57  59 SW20G26   29.93S
CHARLEVOIX     MOSUNNY   74  59  59 SW15G25   29.89S
FRANKFORT      PTSUNNY   64  58  80 SW10G20   29.91S
GAYLORD        MOSUNNY   72  62  71 SW13      29.89F
GRAYLING       MOSUNNY   77  56  49 S15G24    29.90S
HARBOR SPRINGS PTSUNNY   69  60  72 W8        29.86F
HOUGHTON LAKE  PTSUNNY   76  55  48 SW20G30   29.91F
MANISTEE       PTSUNNY   68  57  68 SW7       29.94S
OSCODA         PTSUNNY   83  55  37 SW12G20   29.86F
PELLSTON       CLOUDY    75  58  55 W16G29    29.86F
ROGERS CITY    PTSUNNY   77  56  48 NW10G18   29.87R
TRAVERSE CITY  PTSUNNY   77  57  50 SW13G25   29.86F
$$
MIZ007>008-015-292200-
EASTERN UPPER MICHIGAN

CITY           SKY/WX    TMP DP  RH WIND       PRES   REMARKS
KINROSS          N/A     72  59  64 SW14G20   29.83F
MACKINAC ISLAN CLOUDY    65  57  77 W17G25    29.85F
NEWBERRY       CLOUDY    69  61  75 SW16      29.82F
S. S. MARIE    CLOUDY    75  60  59 SW13G23   29.81F
MUNISING         N/A     58  56  93 N10       29.81R
$$
MIZ004>006-011>014-085-292200-
CENTRAL UPPER MICHIGAN

CITY           SKY/WX    TMP DP  RH WIND       PRES   REMARKS
MANISTIQUE     CLOUDY    58  56  92 S12G17    29.84R
ESCANABA       CLOUDY    64  61  88 CALM      29.82S
MENOMINEE      PTSUNNY   74  60  61 W12G18    29.85R
SAWYER-GWINN   PTSUNNY   66  61  82 SW5       29.82S
$$
MIZ001>003-009>011-084-292200-
WESTERN UPPER MICHIGAN

CITY           SKY/WX    TMP DP  RH WIND       PRES   REMARKS
IRON MOUNTAIN    N/A     74  56  53 W14G20    29.81
HOUGHTON       CLOUDY    63  57  81 W23G29    29.79S
COPPER HARBOR    N/A     55  52  89 VRB5      29.78R
IRONWOOD       CLOUDY    64  57  77 W13G18    29.83R
$$

ABBREVIATIONS USED IN REMARKS
   TC - TEMPERATURE IN CELSIUS
  WCI - WIND CHILL INDEX
   HX - HEAT INDEX
  VSB - VISIBILITY





USA.gov is the U.S. government's official web portal to all federal, state and local government web resources and services.